TimeCDT,TemperatureF,Dew PointF,Humidity,Sea Level PressureIn,VisibilityMPH,Wind Direction,Wind SpeedMPH,Gust SpeedMPH,PrecipitationIn,Events,Conditions,WindDirDegrees,DateUTC
12:52 AM,39.9,28.9,65,30.16,10.0,SE,5.8,-,N/A,,Clear,140,2011-10-28 05:52:00
1:52 AM,37.9,28.0,68,30.17,10.0,SE,5.8,-,N/A,,Clear,140,2011-10-28 06:52:00
2:52 AM,37.0,26.1,65,30.17,10.0,SSE,6.9,-,N/A,,Clear,150,2011-10-28 07:52:00
3:52 AM,37.0,26.1,65,30.15,10.0,SSE,5.8,-,N/A,,Clear,160,2011-10-28 08:52:00
4:52 AM,36.0,25.0,64,30.15,10.0,SSE,5.8,-,N/A,,Clear,150,2011-10-28 09:52:00
5:52 AM,39.0,23.0,53,30.16,10.0,SE,4.6,-,N/A,,Clear,140,2011-10-28 10:52:00
6:52 AM,36.0,24.1,62,30.16,10.0,South,4.6,-,N/A,,Clear,170,2011-10-28 11:52:00
7:52 AM,37.9,24.1,57,30.17,10.0,West,3.5,-,N/A,,Partly Cloudy,260,2011-10-28 12:52:00
8:52 AM,37.0,26.1,65,30.20,10.0,NW,9.2,-,N/A,,Scattered Clouds,310,2011-10-28 13:52:00
9:52 AM,43.0,28.0,56,30.21,10.0,NNW,8.1,-,N/A,,Partly Cloudy,330,2011-10-28 14:52:00
10:52 AM,46.9,30.0,52,30.22,10.0,North,11.5,-,N/A,,Partly Cloudy,360,2011-10-28 15:52:00
11:52 AM,51.8,32.0,47,30.22,10.0,North,10.4,-,N/A,,Clear,350,2011-10-28 16:52:00
12:52 PM,55.0,30.0,38,30.21,10.0,North,12.7,26.5,N/A,,Partly Cloudy,350,2011-10-28 17:52:00
1:52 PM,57.2,23.0,27,30.18,10.0,NNW,18.4,28.8,N/A,,Partly Cloudy,330,2011-10-28 18:52:00
2:52 PM,57.9,19.9,23,30.17,10.0,NNW,13.8,24.2,N/A,,Partly Cloudy,330,2011-10-28 19:52:00
3:52 PM,57.0,18.0,22,30.17,10.0,NNW,16.1,25.3,N/A,,Partly Cloudy,330,2011-10-28 20:52:00
4:52 PM,57.0,18.0,22,30.17,10.0,NNW,10.4,19.6,N/A,,Partly Cloudy,330,2011-10-28 21:52:00
5:52 PM,54.0,19.0,25,30.17,10.0,NNW,12.7,-,N/A,,Partly Cloudy,330,2011-10-28 22:52:00
6:52 PM,48.9,19.0,31,30.19,10.0,WNW,5.8,-,N/A,,Partly Cloudy,300,2011-10-28 23:52:00
7:52 PM,46.9,19.9,34,30.20,10.0,West,4.6,-,N/A,,Clear,260,2011-10-29 00:52:00
8:52 PM,42.1,25.0,51,30.20,10.0,Calm,Calm,-,N/A,,Clear,0,2011-10-29 01:52:00
9:52 PM,39.9,23.0,51,30.20,10.0,Calm,Calm,-,N/A,,Clear,0,2011-10-29 02:52:00
10:52 PM,39.0,26.1,60,30.19,10.0,ESE,3.5,-,N/A,,Partly Cloudy,120,2011-10-29 03:52:00
11:52 PM,39.0,25.0,57,30.17,10.0,SSE,4.6,-,N/A,,Scattered Clouds,150,2011-10-29 04:52:00